Location: Krasnoyarskiy Pitomnik
(51.1333°N, 71.6167°E)
Time: 06:30:56
(UTC+00:00)

Transit 4A - Pass Details

Date: 14 April 2024
Orbit: 871 x 971 km, 66.8° (Epoch: 28 May)

Event Time Altitude Azimuth Distance (km) Brightness Sun altitude
Rises 17:57:22 0° 321° (NW) 3,473 12.0 -26.9°
Reaches altitude 10° 17:59:52 10° 318° (NW) 2,529 11.0 -27.0°
Maximum altitude 18:05:38 64° 239° (WSW) 963 7.8 -27.3°
Enters shadow 18:05:41 64° 235° (SW) 964 7.8 -27.3°
